Notices

What's New in latest Release from April 7th, 2021:

- Updated Glossary, including Speed of Maximum Gust, and Total Hourly Precipitation

- Updated national and regional climate services offices contacts and prices information

- Addition of station inventory lists for 1981-2010, 1971-2000, and 1961-1990 Normals.

If you haven't already, please take our survey and provide feedback about our website: https://eccc.sondage-survey.ca/f/LanguageSelection.aspx?s=442ca660-fcf1-47c0-95a9-59707d6fd709

Hourly Data Report for December 24, 2020

FORT GOOD HOPE CS
NORTHWEST TERRITORIES
Current Station Operator: ECCC - MSC

66°14'32.044" N
128°38'39.081" W
81.70 m
2201450
71491
ZGH

Download Data

Hourly Data (December 2020)
Hourly Data Report for December 24, 2020
TIME
LST
Temp Definition
°C
Dew Point Definition
°C
Rel Hum Definition
%
Precip. Amount Definition
mm

Wind Dir Definition
10's deg

Wind Spd Definition
km/h
Visibility Definition
km
Stn Press Definition
kPa
Hmdx Definition


Wind Chill Definition


Weather Definition


00:00 -18.3 -20.7 81 0.2 9 2   98.30   -20 LegendNANA
01:00 -18.0 -20.4 81 0.2 15 2   98.33   -20 LegendNANA
02:00 -17.6 -19.9 82 0.3 16 4   98.35   -21 LegendNANA
03:00 -17.5 -19.7 82 0.2 34 3   98.40   -20 LegendNANA
04:00 -17.4 -19.6 83 0.8 2 3   98.46   -20 LegendNANA
05:00 -17.1 -19.3 83 0.6 0 1   98.51   -18 LegendNANA
06:00 -16.7 -19.0 83 0.5   0   98.56     LegendNANA
07:00 -16.5 -18.6 83 0.1   0   98.59     LegendNANA
08:00 -15.8 -18.1 83 0.1 22 3   98.67   -18 LegendNANA
09:00 -15.3 -17.4 84 0.0 22 3   98.69   -17 LegendNANA
10:00 -15.0 -17.1 84 0.0 23 4   98.77   -18 LegendNANA
11:00 -13.9 -15.9 85 0.0 22 8   98.84   -19 LegendNANA
12:00 -13.1 -15.0 86 0.0 23 5   98.93   -16 LegendNANA
13:00 -11.7 -13.6 86 0.1 24 7   99.02   -16 LegendNANA
14:00 -11.7 -13.5 87 0.4 27 8   99.11   -16 LegendNANA
15:00 -11.6 -13.3 87 0.5 26 6   99.20   -15 LegendNANA
16:00 -11.9 -13.8 86 0.1 34 1   99.32   -13 LegendNANA
17:00 -12.1 -13.8 88 0.0 22 4   99.39   -15 LegendNANA
18:00 -12.1 -13.9 86 0.0 19 7   99.44   -16 LegendNANA
19:00 -11.9 -13.7 87 0.0 20 9   99.50   -17 LegendNANA
20:00 -12.1 -13.8 87 0.0 20 10   99.56   -18 LegendNANA
21:00 -11.5 -13.5 85 0.0 22 10   99.63   -17 LegendNANA
22:00 -10.2 -12.1 86 0.0 25 9   99.67   -15 LegendNANA
23:00 -9.0 -10.8 87 0.0 27 11   99.74   -14 LegendNANA

Notes on Data Quality.

Legend

  • E = Estimated
  • M = Missing
  • NA = Not Available*
  • [empty] = Indicates an unobserved value
Date modified: